Theta_e
344 345 348 348 348 348 348 347 346 346 346 347 347 347 346 347 345 344 344 344 343 343 343 342 342 341 341 340 340 340 340 339 337 335 333 332 330 329 327 326 324 324 325 325 326 326 325 325 325 323 320 329
339 343 345 346 346 346 346 346 346 346 346 346 347 346 345 344 344 345 344 343 343 342 342 342 342 341 341 340 339 339 339 337 336 334 333 331 330 329 327 325 322 322 322 323 324 323 323 324 322 323 320 327
349 335 341 342 343 343 344 345 345 345 343 342 343 341 340 338 338 337 338 339 341 341 338 338 339 342 341 340 339 339 338 336 335 333 332 331 329 327 325 323 321 320 320 320 321 322 322 320 319 316 323 323
349 337 334 339 338 339 341 342 342 340 337 334 334 333 332 329 334 331 338 330 339 334 338 335 336 338 339 339 339 339 338 336 335 334 332 331 329 326 323 320 317 317 317 317 318 318 318 320 314 323 319 321
346 347 331 334 333 334 337 339 337 337 329 323 322 326 324 326 349 345 345 342 343 329 342 329 329 335 339 339 340 339 337 336 334 333 332 330 328 325 321 318 318 318 315 313 314 314 318 312 323 316 316 317
345 349 342 347 348 347 341 334 329 339 347 338 346 329 335 344 342 341 342 342 339 342 341 336 326 331 336 339 337 337 337 336 334 333 332 330 328 325 321 317 317 313 311 314 314 315 310 324 313 315 314 315
344 344 346 346 345 347 337 342 345 345 345 346 344 345 345 340 342 342 342 341 343 341 329 340 322 329 333 335 334 335 336 335 334 334 332 331 328 325 323 325 326 320 320 317 308 309 318 311 312 313 313 312
342 342 344 344 344 344 345 344 344 345 345 345 345 346 343 341 341 343 343 326 325 335 342 333 322 323 326 328 329 330 333 333 334 334 332 330 327 326 326 328 325 322 318 316 313 312 309 310 311 313 311 311
340 342 343 343 342 343 344 345 344 343 343 343 345 345 343 342 341 342 341 342 342 341 338 339 340 339 339 338 336 327 335 334 335 332 332 329 327 330 329 327 325 324 322 320 318 315 312 310 311 312 312 311
339 341 340 341 340 340 341 344 343 342 343 341 343 342 341 340 340 340 340 340 340 339 337 337 337 338 338 337 336 335 338 336 334 334 333 332 331 329 329 327 325 324 321 321 319 317 315 313 311 312 310 310
339 340 340 340 341 340 336 341 342 343 343 344 343 343 343 342 340 341 340 338 339 338 338 336 335 335 337 337 335 334 335 334 334 334 332 332 332 329 328 326 324 322 320 320 319 318 317 315 313 312 311 311
336 339 339 342 339 340 338 339 339 341 339 341 341 343 341 339 340 340 339 339 337 338 338 337 336 336 335 335 335 335 335 334 334 333 333 331 333 329 327 326 324 322 320 320 319 318 318 317 315 314 311 311
336 338 339 341 340 340 336 339 338 338 338 338 339 340 340 338 337 337 338 339 340 338 337 337 337 337 336 336 336 335 333 333 332 331 331 330 330 330 328 326 325 323 323 322 322 320 318 318 316 315 314 313
335 337 337 338 335 335 335 334 333 332 332 333 333 333 335 336 336 336 336 337 342 340 339 337 338 336 335 334 336 335 333 333 332 332 331 331 329 327 326 327 325 324 324 323 321 320 319 317 316 317 314 314
332 331 332 332 331 329 329 329 330 330 330 329 328 328 331 334 334 334 333 332 331 333 334 336 335 334 334 333 333 334 333 331 329 327 325 325 324 324 324 322 321 321 324 323 321 320 319 318 317 316 316 315
328 326 325 327 325 325 325 324 324 325 325 324 324 326 328 330 331 330 330 330 329 328 326 326 326 326 326 326 328 328 328 326 325 322 320 319 319 319 321 322 320 321 322 323 321 321 319 319 318 317 318 317
324 321 319 320 321 321 322 322 322 321 322 322 321 326 327 327 328 328 327 327 326 325 325 325 324 322 322 323 324 324 324 323 324 322 320 319 320 320 321 323 321 322 322 321 321 321 320 320 319 318 318 318
318 317 315 317 317 316 318 320 318 317 319 319 319 320 323 325 324 324 325 325 323 323 322 321 321 321 321 322 323 323 323 322 323 322 320 319 320 318 321 320 319 320 320 321 321 322 321 320 319 318 318 317
311 313 312 312 312 312 313 314 313 313 313 314 316 317 316 318 320 324 325 325 323 323 321 320 319 319 319 319 319 319 321 321 320 320 319 320 320 318 318 317 315 316 317 316 317 319 319 319 318 318 317 317
307 308 309 309 309 310 311 310 310 309 310 311 312 313 313 314 314 317 321 322 323 321 321 319 317 317 318 319 318 318 318 319 318 317 316 315 317 316 315 316 314 313 311 311 311 313 316 318 317 317 317 316
306 306 305 305 306 307 307 307 307 307 307 308 308 308 309 310 311 312 313 317 321 319 318 316 314 314 314 315 315 315 315 315 316 315 313 310 310 314 312 310 310 309 309 309 310 311 312 314 315 316 316 314
305 305 305 304 304 304 305 305 305 305 305 305 305 306 305 307 308 309 310 310 312 312 311 312 311 312 312 312 312 312 312 311 311 312 311 307 307 310 308 306 306 305 306 309 311 311 312 313 313 314 313 310
305 305 304 304 303 302 302 303 303 304 304 304 304 304 304 305 305 306 308 308 308 308 308 308 307 307 308 308 308 308 308 310 312 311 312 311 308 307 307 306 307 307 307 308 310 310 311 312 312 313 309 310
305 305 304 302 302 301 300 301 301 301 301 302 301 302 303 304 304 305 306 307 307 307 307 306 306 306 307 307 307 306 306 306 307 308 310 309 309 308 307 306 306 306 305 308 310 310 311 312 311 309 307 306
305 303 302 301 300 298 299 299 299 298 299 299 299 300 300 301 301 302 303 304 305 305 305 305 306 306 305 306 305 305 304 305 306 307 308 308 307 306 304 303 304 304 305 307 304 307 310 310 309 306 306 305
304 303 302 300 298 298 298 298 297 296 297 297 298 297 298 298 299 299 300 300 302 302 303 303 303 303 303 303 303 303 303 303 303 304 304 306 306 306 303 301 303 303 303 302 300 301 304 307 306 305 305 304
301 301 301 300 298 297 296 297 297 296 296 296 295 295 296 296 296 297 297 298 298 299 300 300 301 301 301 302 302 301 300 301 301 301 301 302 303 303 303 302 302 301 301 298 300 303 302 301 300 302 303 302
301 300 299 299 298 298 297 295 296 295 295 294 294 293 294 294 295 295 295 295 296 296 297 297 297 297 298 298 298 297 296 297 297 297 298 300 300 301 298 299 299 300 299 299 298 295 296 299 301 298 299 296
299 298 297 297 297 297 296 296 295 294 292 292 292 292 292 292 293 294 293 294 294 294 294 295 295 295 294 295 295 294 293 293 294 294 295 296 297 297 296 294 297 297 297 297 299 297 295 295 294 293 293 295
300 299 298 297 296 295 294 292 292 290 289 290 290 290 291 292 292 292 292 293 293 293 293 293 293 294 293 293 293 293 293 292 292 293 293 294 294 294 295 293 292 292 295 295 295 296 295 295 292 290 292 292
301 300 300 299 297 295 293 290 290 291 291 290 290 290 290 290 291 292 291 292 292 292 292 293 293 293 292 292 292 292 292 291 291 292 292 293 292 292 293 293 290 290 290 291 292 293 293 294 295 296 292 287
Wind_Speed
2 4 4 5 4 4 4 3 4 5 5 5 6 5 5 4 5 3 5 4 4 4 6 6 5 4 8 7 11 12 13 13 12 11 11 10 11 10 11 10 10 10 10 11 11 10 10 10 9 9 10 4
2 3 4 4 5 5 5 5 5 3 3 4 5 6 6 6 6 5 4 5 5 5 5 5 5 5 7 8 11 12 13 13 12 11 10 10 10 10 10 10 10 10 10 10 9 9 8 8 8 8 10 5
7 5 4 5 4 4 5 5 4 5 5 6 6 6 6 6 6 6 6 6 6 6 4 3 5 5 5 7 11 12 13 13 12 11 10 9 9 9 9 9 9 9 9 9 8 8 6 6 6 9 5 6
7 7 6 6 6 5 4 4 6 6 6 7 7 6 7 7 6 6 6 9 6 6 6 4 1 6 6 7 10 11 13 13 12 11 9 9 8 8 8 9 8 8 8 8 7 6 6 6 8 4 5 5
5 7 7 6 8 8 7 5 5 7 7 7 7 7 7 8 6 5 5 7 5 7 6 7 4 5 7 5 7 10 11 12 11 9 9 9 8 8 7 8 8 8 7 7 5 4 4 7 3 5 5 5
4 6 7 9 8 7 7 7 7 6 5 6 5 5 5 5 5 4 4 5 7 6 6 5 4 3 8 5 7 8 11 11 10 8 8 8 7 8 5 7 4 5 5 5 2 1 5 3 4 4 4 4
4 5 6 7 7 6 7 8 8 7 7 6 6 6 6 5 4 3 2 3 4 5 6 5 6 5 2 6 7 8 10 10 9 7 8 7 7 7 5 4 3 3 2 3 5 5 1 4 3 3 4 3
4 4 5 4 5 6 5 6 5 7 5 5 5 5 5 4 3 3 2 7 8 5 5 6 7 5 6 5 3 9 7 7 6 7 7 6 6 6 2 3 3 3 3 3 3 3 3 3 3 3 3 3
4 4 4 4 4 5 4 4 5 3 4 5 5 5 5 4 3 3 4 4 4 4 4 5 5 5 3 3 3 6 4 4 4 4 4 2 5 3 3 3 4 3 3 4 3 4 4 3 3 2 2 2
3 2 4 4 4 4 4 4 4 2 3 2 3 3 3 4 4 4 4 4 5 4 4 5 5 5 5 6 6 5 2 3 3 3 2 2 1 3 5 3 3 4 3 3 3 4 3 3 2 2 2 2
4 4 4 4 3 3 3 3 3 2 2 1 1 1 2 1 2 3 3 4 4 5 4 4 5 6 6 6 6 6 5 6 4 1 4 1 1 3 3 3 2 2 2 2 3 3 3 2 2 2 2 2
4 4 3 2 3 2 4 2 3 3 2 2 2 1 2 2 3 2 2 3 4 4 3 4 3 3 4 5 6 6 5 4 2 1 3 1 0 2 2 2 1 1 1 1 1 3 3 2 2 2 1 1
5 4 4 4 3 5 6 3 5 6 5 5 5 5 5 3 1 3 3 3 2 2 2 3 3 2 3 2 2 4 3 1 2 3 2 3 2 1 2 2 2 2 2 1 3 2 2 1 2 2 1 1
5 5 4 6 7 6 7 7 8 8 7 6 6 6 6 5 4 4 4 3 1 1 1 1 1 2 1 1 1 2 1 2 3 1 2 1 0 1 1 1 4 1 3 2 3 4 2 2 1 1 1 1
8 9 8 8 7 7 7 7 6 7 6 6 6 6 7 6 6 5 5 5 5 5 5 4 2 4 4 4 4 3 3 4 5 6 6 5 4 3 3 4 4 4 2 1 2 2 2 2 1 1 1 0
8 8 7 8 7 7 6 7 6 7 7 7 6 8 7 7 6 6 6 7 6 6 7 6 6 6 5 5 4 5 5 4 4 5 5 4 4 3 3 3 3 2 3 2 2 1 1 0 1 2 2 1
8 7 6 7 7 6 5 6 6 7 6 6 7 7 8 7 7 7 6 7 8 7 7 6 6 6 5 5 5 5 5 5 5 5 3 3 2 2 0 1 1 0 1 1 2 2 2 2 1 1 2 2
8 7 6 7 7 7 7 7 7 8 7 7 6 7 8 7 8 7 6 6 7 7 7 6 6 8 6 5 5 4 3 5 4 3 3 2 2 1 1 3 3 3 2 3 3 3 1 3 2 2 2 2
8 7 7 7 8 8 8 7 8 8 7 6 6 6 7 9 8 7 7 6 5 6 6 7 7 7 5 6 6 5 5 4 4 4 4 3 3 3 3 2 2 2 1 2 3 3 3 3 2 2 1 1
9 9 9 9 9 9 9 8 8 7 7 7 7 7 7 9 9 8 8 8 7 7 7 7 7 7 5 6 5 5 5 6 6 5 5 5 5 3 2 2 2 2 3 2 2 3 3 3 2 2 1 1
11 10 10 10 10 10 10 9 8 7 7 7 8 7 7 8 9 9 9 8 8 8 8 8 7 7 7 6 6 6 6 6 6 6 5 6 5 5 4 4 4 3 3 3 3 3 3 2 2 2 1 2
9 9 10 10 9 10 10 9 8 7 7 8 8 8 8 8 8 9 10 10 8 8 8 8 8 8 8 7 7 7 7 7 6 5 5 4 4 3 3 3 3 3 3 2 3 3 2 2 1 1 1 3
10 10 10 9 9 9 9 8 9 8 8 8 8 8 9 9 8 8 9 9 9 8 7 7 7 7 7 6 6 6 6 5 3 3 3 2 2 2 3 4 5 5 5 4 3 3 3 1 1 1 3 2
7 7 7 8 7 9 9 9 9 9 9 8 9 9 9 9 8 9 9 9 8 8 7 7 7 7 6 6 6 7 7 6 6 6 5 6 6 5 5 7 6 7 7 5 4 3 2 1 2 4 3 4
7 7 7 8 8 9 8 8 8 9 9 9 9 10 10 11 10 10 10 10 9 8 8 7 7 8 8 8 8 8 8 8 9 8 7 5 6 7 7 8 8 9 8 4 4 4 2 2 5 5 3 5
6 5 5 7 7 8 7 7 8 8 8 9 9 11 11 10 10 11 11 10 10 10 9 9 9 9 9 9 8 9 9 10 9 9 9 7 4 6 7 7 9 9 9 5 6 5 3 4 6 5 4 6
7 7 7 8 8 9 9 9 9 9 9 9 10 11 11 11 11 11 11 11 11 9 10 10 9 9 8 9 8 8 9 9 10 9 10 10 8 4 6 6 7 10 10 7 9 4 3 1 1 3 3 7
9 11 11 11 11 10 10 9 9 10 10 10 10 11 10 10 10 11 10 11 11 9 10 10 9 8 8 9 9 8 9 9 10 10 10 10 10 8 6 6 7 9 10 9 9 6 5 3 3 1 3 10
10 11 11 11 12 11 12 10 9 9 9 9 9 9 10 10 10 10 10 11 11 10 10 10 9 8 8 8 8 8 8 8 9 9 9 10 9 10 8 7 6 7 10 11 10 7 6 5 5 6 7 10
8 8 9 9 9 9 8 9 7 8 8 8 8 8 7 9 10 10 10 9 10 10 9 9 9 9 8 8 7 7 7 7 7 9 9 9 8 9 10 7 7 7 7 8 9 9 8 6 4 6 8 6
7 7 6 7 8 8 9 10 8 8 8 8 8 8 9 8 8 9 9 9 9 8 8 8 8 8 8 8 8 7 7 8 8 7 8 7 8 8 7 8 7 8 7 5 8 7 7 6 4 4 5 5
Wind_Direction
193 157 176 200 185 162 155 191 199 157 165 169 159 134 138 149 130 161 171 161 146 143 133 134 140 127 110 97 101 99 98 95 89 83 78 70 61 57 54 51 52 50 48 44 41 34 25 17 4 343 334 17
155 190 165 160 164 145 152 166 166 151 147 131 110 92 93 105 118 146 151 146 148 147 117 136 135 135 121 115 108 105 105 104 99 94 86 74 67 63 59 58 57 57 53 47 42 36 23 5 347 333 319 27
174 175 168 138 129 135 150 156 153 136 112 97 98 100 105 112 121 125 129 123 148 136 148 138 150 123 120 127 117 117 117 113 111 106 98 88 80 73 69 64 64 62 57 52 43 31 20 340 332 308 310 35
205 165 168 158 137 139 140 150 138 133 115 110 112 116 126 134 134 137 140 148 159 157 154 96 99 120 121 140 126 127 123 119 116 113 108 101 96 90 84 84 77 70 67 58 45 25 346 333 305 347 34 14
235 144 152 169 166 159 160 155 142 130 132 137 135 141 155 162 197 198 159 164 176 158 168 141 138 138 127 144 133 132 126 121 119 117 115 111 108 107 106 105 101 87 81 69 50 13 331 308 330 35 29 17
227 144 185 212 194 189 169 169 178 164 189 187 176 156 158 215 226 226 201 202 155 188 148 145 128 146 144 136 137 136 130 125 122 120 116 116 122 113 130 159 150 119 104 105 110 340 302 315 40 39 28 33
213 202 199 210 197 195 201 190 196 217 213 216 200 190 211 226 231 226 236 70 65 50 82 125 138 124 121 150 146 140 133 135 129 126 122 125 128 130 166 212 71 75 127 144 184 217 303 53 40 37 44 40
195 196 201 210 191 200 198 205 214 223 223 218 215 208 219 227 219 216 188 110 117 139 159 120 112 103 89 59 136 138 134 132 139 133 124 137 153 169 181 61 54 71 67 50 43 44 38 51 40 44 42 47
202 181 191 192 196 189 189 208 208 227 229 224 220 215 227 232 218 215 212 176 174 195 203 165 166 158 162 140 159 167 147 173 156 175 141 146 226 42 71 63 57 63 73 63 64 56 37 39 35 41 43 40
171 191 181 186 194 197 185 180 192 218 264 245 230 243 260 221 220 219 215 202 206 201 189 184 179 162 166 159 161 195 178 219 185 229 82 94 357 36 50 50 46 35 43 82 78 79 68 50 44 44 41 40
194 196 186 175 171 196 190 152 121 64 52 69 360 335 341 332 356 317 280 242 218 215 205 205 192 174 159 163 171 186 197 213 226 219 95 32 352 54 81 63 56 51 28 46 70 79 82 74 80 71 61 54
183 183 174 111 76 257 96 143 110 95 88 102 134 119 53 58 33 345 269 282 244 212 238 224 224 186 167 172 178 192 203 218 207 150 100 100 131 116 118 102 75 95 76 49 80 94 83 85 79 72 78 89
169 160 148 151 111 61 50 53 77 66 55 52 44 47 55 46 19 22 350 270 287 277 230 208 206 201 170 174 171 201 205 183 210 199 152 177 195 130 137 157 133 106 48 352 40 37 62 87 99 106 108 91
164 144 106 83 65 70 59 57 63 61 52 50 44 34 18 41 31 40 16 353 320 321 306 139 156 167 132 96 139 179 183 221 232 213 203 240 207 53 92 288 71 348 103 45 34 21 12 359 18 92 117 134
60 56 71 80 70 66 66 59 65 71 64 54 47 39 30 35 36 36 36 36 32 33 26 31 71 74 65 56 27 20 67 47 47 49 41 28 9 8 18 26 36 6 9 90 88 67 13 353 315 17 36 70
73 64 63 67 74 73 67 67 67 64 58 53 42 41 37 38 43 44 42 38 48 56 56 60 58 36 48 53 34 37 39 57 62 71 66 55 34 16 6 29 29 356 338 357 61 4 25 288 343 333 355 342
71 66 57 66 70 69 70 71 68 68 61 56 51 49 49 45 43 50 49 49 55 58 65 64 64 68 49 48 49 54 63 69 74 76 84 76 74 39 270 145 106 295 287 32 353 329 360 325 330 12 327 354
76 69 63 67 74 62 61 66 62 58 54 54 59 47 40 51 49 51 52 58 65 64 58 51 50 57 50 44 45 27 37 50 54 71 85 123 160 115 22 48 29 356 352 346 327 304 350 305 360 358 333 354
65 67 63 61 60 57 56 59 60 54 48 49 51 54 47 40 42 55 65 74 72 70 74 68 62 59 56 52 46 37 29 63 62 50 41 15 51 46 56 43 20 349 13 348 337 327 320 314 353 297 311 330
64 64 64 60 58 60 54 58 56 52 46 44 47 50 48 45 46 42 49 44 61 67 64 64 60 53 48 65 76 67 55 52 56 53 47 27 18 55 38 49 43 19 4 355 326 315 299 299 299 316 320 19
68 69 67 63 59 60 58 58 56 49 46 46 45 41 40 37 45 50 48 58 60 64 64 66 66 63 55 50 55 56 54 51 44 43 45 34 12 3 46 33 28 14 349 318 283 268 282 294 304 295 6 28
80 78 77 69 66 62 62 58 54 50 46 45 43 40 37 30 37 41 47 51 55 59 57 58 59 56 50 51 55 60 59 60 59 62 65 64 30 16 46 45 23 354 318 289 285 286 267 261 261 315 36 58
85 84 81 81 72 65 64 59 53 48 49 44 39 37 33 30 33 33 43 48 52 57 59 58 55 54 51 53 51 49 52 61 86 131 128 100 121 92 46 23 19 352 325 296 263 267 276 254 246 12 65 50
88 84 85 84 80 69 59 60 57 49 48 43 40 33 32 31 32 31 35 43 50 55 55 58 56 56 49 50 52 50 48 42 35 29 50 48 38 55 52 30 11 358 340 314 312 276 277 165 92 78 74 87
100 99 95 84 80 80 72 68 65 59 51 46 40 32 33 33 31 28 30 31 38 46 55 56 52 52 52 50 48 47 44 36 32 24 18 47 47 38 40 27 9 357 325 323 338 327 253 143 97 92 121 81
89 80 87 99 93 90 77 73 68 64 52 49 44 38 35 33 30 30 31 26 29 37 42 46 46 43 41 42 44 44 42 36 31 26 23 6 73 59 50 43 14 8 349 15 349 332 339 154 111 107 100 34
98 97 94 98 98 98 93 79 79 77 70 62 55 46 40 37 35 31 30 29 27 29 32 41 46 46 43 43 43 47 42 36 35 27 24 24 14 45 62 58 32 22 17 3 333 305 298 72 182 123 121 17
100 100 100 95 99 97 97 98 90 84 74 68 63 56 49 45 41 40 40 34 34 36 36 38 45 47 45 45 44 46 46 38 35 28 25 25 23 16 44 37 45 32 25 21 4 17 341 303 296 238 69 3
109 107 102 103 104 104 103 98 94 89 76 71 68 66 52 47 47 45 44 39 37 36 38 37 40 45 47 47 45 48 49 46 37 32 29 26 31 26 27 36 33 46 38 31 24 21 2 1 8 23 343 333
120 118 123 128 124 117 109 99 90 84 89 81 71 70 69 59 53 54 51 48 45 42 41 41 41 44 49 49 46 46 50 49 44 34 32 27 30 30 22 35 35 31 40 45 32 32 43 21 12 342 331 338
135 133 127 114 110 110 111 108 95 97 95 97 94 88 81 76 66 62 64 57 52 49 46 46 42 46 49 49 49 45 47 44 41 39 32 28 34 34 27 25 45 35 19 31 37 27 30 25 22 356 358 355